Overview Statistics Trail Chart Weather Telemetry Raw packets
 

This is the latest recevied weather packets stored in our database for station/object WL7HC. If no packets are shown the sender has not sent any weather packets the latest 10 day(s).

<< 1 2 3 4 5 6 >>
Time Temp. Humidity Pressure Rain* Wind** Luminosity Snow
1788563088 24.44° C 91% 978.5 hPa 0 mm - - -
1788562783 24.44° C 91% 978.6 hPa 0 mm - - -
1788562481 24.44° C 91% 978.6 hPa 0 mm - - -
1788562180 23.89° C 90% 978.7 hPa 0 mm - - -
1788561876 24.44° C 91% 978.6 hPa 0 mm - - -
1788561576 23.89° C 90% 978.7 hPa 0 mm - - -
1788561275 23.89° C 91% 978.4 hPa 0 mm - - -
1788560971 23.89° C 92% 978.4 hPa 0 mm - - -
1788560667 23.89° C 91% 978.5 hPa 0 mm - - -
1788560366 24.44° C 91% 978.6 hPa 0 mm - - -
1788560061 24.44° C 89% 978.6 hPa 0 mm - - -
1788559757 24.44° C 90% 978.4 hPa 0 mm - - -
1788559456 24.44° C 91% 978.2 hPa 0 mm - - -
1788559151 24.44° C 91% 978.3 hPa 0 mm - - -
1788558846 24.44° C 93% 978.2 hPa 0 mm - - -
1788558542 23.89° C 93% 978.2 hPa 0 mm - - -
1788558238 23.89° C 92% 978 hPa 0 mm - - -
1788557936 23.89° C 91% 978.1 hPa 0 mm - - -
1788557631 24.44° C 91% 978.1 hPa 0 mm - - -
1788557328 24.44° C 88% 977.9 hPa 0 mm - - -
1788557027 23.89° C 89% 977.9 hPa 0 mm - - -
1788556722 24.44° C 89% 978 hPa 0 mm - - -
1788556418 24.44° C 92% 978.3 hPa 0 mm - - -
1788556112 24.44° C 92% 978.3 hPa 0 mm - - -
1788555812 23.89° C 93% 978.2 hPa 0 mm - - -

* Rain latest hour (hover to see other rain measurements)
** Current wind speed in m/s (hover to see current wind gust speed)